Date,TemperatureHighF,TemperatureAvgF,TemperatureLowF,DewpointHighF,DewpointAvgF,DewpointLowF,HumidityHigh,HumidityAvg,HumidityLow,PressureMaxIn,PressureMinIn,WindSpeedMaxMPH,WindSpeedAvgMPH,GustSpeedMaxMPH,PrecipitationSumIn
2013-1-1,33,25,21,26,13,8,75,61,51,30.13,29.98,26,14,0,0.00
2013-1-2,28,24,22,21,16,13,82,71,62,30.11,30.01,22,16,0,0.00
2013-1-3,27,25,20,24,19,13,89,79,73,30.19,29.95,25,19,0,0.00
2013-1-4,33,22,13,23,14,5,76,70,65,30.19,30.00,24,18,0,0.00
2013-1-5,34,32,31,32,23,20,94,70,61,30.20,29.98,28,15,0,0.00
2013-1-6,39,34,28,35,32,25,99,93,83,30.21,29.86,28,19,0,0.00
2013-1-7,40,33,27,29,24,21,84,69,55,30.32,29.84,29,18,0,0.00
2013-1-8,39,37,35,35,31,28,88,79,72,30.11,29.88,28,16,0,0.00
2013-1-9,43,39,35,33,26,22,79,60,44,30.43,29.83,29,21,0,0.00
2013-1-10,39,37,35,33,29,24,85,72,63,30.51,30.25,29,16,0,0.00
2013-1-11,50,44,38,50,42,31,99,90,71,30.22,29.75,29,22,0,0.00
2013-1-12,57,50,44,54,47,42,100,89,76,29.95,29.26,24,16,0,0.00
2013-1-13,49,40,34,49,40,34,100,100,98,30.03,29.77,29,9,0,0.00
2013-1-14,33,26,24,32,19,15,95,73,64,30.45,30.06,16,7,0,0.00
2013-1-15,32,27,21,21,18,16,82,68,56,30.45,30.19,7,4,0,0.00
2013-1-16,36,31,25,24,22,19,85,69,53,30.15,29.86,21,11,0,0.00
2013-1-17,37,32,17,28,22,3,82,66,51,30.29,29.52,26,11,0,0.00
2013-1-18,27,19,15,21,9,2,84,65,53,30.42,30.06,25,18,0,0.00
2013-1-19,44,39,34,33,29,26,75,67,61,29.92,29.46,29,23,0,0.00
2013-1-20,32,16,12,31,6,2,97,65,56,30.12,29.41,29,24,0,0.00
2013-1-21,13,4,-5,6,-7,-17,76,61,50,30.27,29.91,28,23,0,0.00
2013-1-22,7,0,-5,-6,-11,-16,71,59,48,30.40,30.27,22,16,0,0.00
2013-1-23,17,8,-1,9,1,-9,84,71,52,30.29,30.03,28,18,0,0.00
2013-1-24,17,14,8,11,4,-2,83,64,44,30.58,30.37,26,13,0,0.00
2013-1-25,18,14,9,12,7,2,82,76,65,30.53,30.07,11,8,0,0.00
2013-1-26,28,22,15,19,15,9,85,76,68,30.39,30.08,20,10,0,0.00
2013-1-27,35,33,29,35,28,17,98,82,61,30.35,29.94,29,19,0,0.00
2013-1-28,40,35,31,40,34,28,99,96,88,29.98,29.79,23,13,0,0.00
2013-1-29,57,39,33,56,38,32,100,97,90,29.98,29.55,26,18,0,0.00
2013-1-30,58,32,19,55,32,16,100,98,87,29.51,29.16,29,22,0,0.00
2013-1-31,17,12,5,9,4,-3,73,68,62,30.11,29.26,29,21,0,0.00
2013-2-1,6,2,-1,-1,-5,-7,80,71,65,30.26,29.49,29,22,0,0.00
2013-2-2,20,11,4,12,3,-5,86,69,59,30.12,30.01,21,14,0,0.00
2013-2-3,21,17,12,15,10,6,89,72,59,30.00,29.80,29,14,0,0.00
2013-2-4,18,14,11,8,4,1,81,66,50,29.99,29.90,28,13,0,0.00
2013-2-5,33,27,19,26,18,5,91,70,49,30.07,29.79,29,18,0,0.00
2013-2-6,33,30,25,29,22,18,97,73,59,30.26,30.07,17,10,0,0.00
2013-2-7,32,22,13,29,-22,-100,94,58,82,30.20,30.05,24,19,0,0.00
2013-2-8,30,26,24,-100,-100,-100,0,0,100,30.22,29.90,28,25,0,0.00
2013-2-9,27,22,17,-100,-100,-100,0,0,100,30.45,30.27,22,9,0,0.00
2013-2-10,39,27,17,-100,-100,-100,0,0,100,30.33,29.76,22,16,0,0.00
2013-2-11,42,38,34,-17,-95,-100,8,0,8,29.75,29.51,26,23,0,0.00
2013-2-12,34,31,30,-100,-100,-100,0,0,100,29.97,29.75,28,21,0,0.00
2013-2-13,33,29,26,-100,-100,-100,0,0,100,29.89,29.71,23,14,0,0.00
2013-2-14,34,31,28,-100,-100,-100,0,0,100,29.97,29.65,24,16,0,0.00
2013-2-15,29,22,15,-100,-100,-100,0,0,100,30.20,29.97,24,14,0,0.00
2013-2-16,17,13,8,-100,-100,-100,0,0,100,30.12,30.06,22,12,0,0.00
2013-2-17,21,17,12,-100,-100,-100,0,0,100,30.19,30.03,22,10,0,0.00
2013-2-18,21,21,21,-100,-100,-100,0,0,100,30.19,30.18,10,8,0,0.00